Wind_Speed
16 17 17 17 17 18 18 17 18 18 18 18 18 18 18 18 18 18 18 18 18 18 18 19 19 19 19 19 20 20 20 20 20 19 19 18 18 18
17 17 17 17 17 18 18 18 18 18 18 17 17 18 18 19 18 18 19 19 19 19 20 20 20 20 20 21 21 22 22 21 21 21 20 20 19 19
17 17 17 17 17 17 18 18 18 18 18 18 18 18 18 19 19 20 20 20 20 20 20 20 20 21 21 22 22 22 22 22 22 21 21 21 20 19
17 17 17 17 17 17 18 18 18 19 18 18 19 19 19 20 20 21 21 21 21 21 21 21 21 21 22 22 22 22 23 23 23 24 23 23 21 20
17 17 17 17 17 18 19 19 19 19 19 19 19 19 20 21 21 21 21 22 22 22 22 22 21 21 22 23 23 23 23 24 24 23 23 24 24 23
17 17 17 18 18 19 19 19 19 20 20 20 21 20 20 20 21 21 21 22 22 22 23 23 23 22 23 23 23 24 24 24 24 24 24 24 25 25
18 18 18 19 19 19 19 19 19 20 20 21 21 21 21 21 21 22 22 22 22 23 23 23 23 23 24 24 24 25 25 24 24 24 25 25 26 26
18 18 18 18 19 19 20 20 20 21 22 22 22 22 22 21 21 22 22 22 22 23 24 24 24 24 25 25 26 26 26 26 26 26 26 27 28 28
19 19 19 19 20 20 20 21 21 22 23 22 21 21 22 22 22 22 22 23 23 24 25 25 25 26 26 26 26 27 27 28 28 29 29 29 29 29
19 19 20 20 20 20 20 21 22 22 22 22 22 23 23 23 23 23 24 24 24 25 25 25 25 26 27 27 27 28 28 29 30 31 31 31 32 32
20 20 20 20 21 21 21 21 22 22 23 23 23 24 24 24 24 24 24 25 25 25 27 27 27 28 28 28 28 29 30 30 30 30 31 31 32 32
21 21 22 22 22 23 23 23 23 23 24 24 24 25 25 25 26 25 26 27 27 27 28 29 29 30 29 29 29 30 30 30 31 31 31 32 32 32
23 23 23 24 25 25 25 24 24 25 25 25 25 25 26 26 27 27 28 28 29 29 30 30 30 30 30 30 30 31 31 31 32 32 32 32 32 32
25 25 25 26 26 26 27 27 26 26 26 26 26 26 26 26 27 27 29 30 30 30 29 30 30 30 31 31 31 32 32 32 32 32 32 32 33 33
27 27 27 27 28 28 28 28 28 27 27 27 26 27 27 28 29 29 29 30 30 30 30 31 31 32 32 32 32 32 33 33 33 32 32 33 33 34
29 29 29 29 29 29 29 29 29 28 28 28 27 27 28 29 29 30 31 31 31 32 32 32 33 33 33 32 32 33 33 33 33 34 33 34 34 35
30 31 30 30 30 30 30 30 30 30 29 29 28 29 29 29 30 31 31 32 33 33 33 33 33 34 34 34 34 34 34 34 34 34 35 35 36 36
31 31 31 31 32 32 32 31 31 31 31 31 31 31 31 31 31 31 32 32 33 33 33 34 34 35 36 35 35 35 36 36 36 37 37 37 38 38
33 33 33 33 33 33 33 32 32 32 32 32 32 33 33 33 33 33 33 33 33 33 34 35 36 36 36 36 36 37 37 38 38 38 38 39 39 40
34 34 33 34 34 34 34 34 33 33 33 33 33 34 35 35 35 35 36 36 35 36 36 36 36 37 37 37 37 38 38 38 38 38 39 40 41 41
34 34 34 34 34 34 34 34 34 34 34 35 35 36 36 36 36 36 36 37 37 37 37 38 38 38 38 39 39 39 39 40 40 41 41 41 41 41
35 34 34 35 34 34 34 35 35 35 35 36 36 37 37 37 37 37 37 37 37 37 38 39 39 40 40 40 40 40 40 41 42 42 42 42 42 42
35 34 34 35 35 36 36 36 37 37 37 37 38 38 38 38 37 37 37 38 38 39 39 40 40 40 41 41 42 42 41 41 42 42 43 43 44 44
Wind_Direction
279 276 276 275 274 273 271 269 268 267 268 268 266 263 263 264 265 266 268 270 272 273 274 274 274 275 275 275 274 274 273 271 271 271 272 273 275 274
280 278 277 277 275 272 272 270 270 269 267 267 267 266 265 265 266 267 268 270 272 273 274 274 275 276 275 275 274 274 273 270 269 269 271 270 272 272
281 279 279 278 275 273 272 271 271 272 270 269 267 267 270 270 268 267 268 270 272 274 276 276 276 277 276 276 275 274 274 272 270 269 270 268 268 270
281 281 280 278 276 275 274 273 273 273 273 270 269 269 270 272 272 270 268 268 270 272 274 275 276 278 278 277 276 274 273 272 272 269 268 266 264 267
281 280 279 278 276 277 276 275 273 273 274 272 272 271 271 272 272 271 269 268 270 271 273 274 275 278 278 278 276 274 274 272 272 271 270 268 267 265
281 281 280 279 277 277 277 276 274 274 275 275 274 273 271 272 273 271 270 270 271 273 274 275 275 276 277 278 277 275 276 275 273 272 272 271 270 268
281 282 282 281 280 279 277 276 274 275 275 276 275 273 272 272 273 273 271 271 273 274 274 275 276 278 277 278 278 277 275 276 275 273 272 272 270 269
283 283 284 283 282 280 277 276 275 275 276 276 275 273 273 273 272 273 273 274 275 275 276 277 277 279 279 279 280 278 276 275 275 275 274 274 273 272
281 282 283 284 281 280 279 277 276 277 276 276 275 274 274 273 272 272 273 275 276 277 277 278 278 279 280 279 278 278 276 275 274 274 275 276 276 275
281 281 281 282 282 281 280 281 279 277 277 277 275 274 274 275 273 273 274 275 275 276 277 279 280 281 281 280 279 280 279 279 277 275 274 275 276 275
281 281 281 281 281 281 281 282 283 281 279 279 276 274 273 272 270 271 272 274 275 276 278 279 280 281 281 281 281 281 281 280 279 277 276 276 276 275
281 281 281 281 281 281 282 282 284 283 282 280 278 275 273 273 272 271 272 274 276 278 279 281 282 281 281 281 282 282 282 281 279 278 277 276 276 276
280 281 281 280 280 280 281 281 283 284 283 282 280 279 277 275 274 274 273 275 277 278 279 280 281 281 281 280 280 281 282 281 279 278 277 277 277 277
280 280 280 280 280 280 280 281 283 283 282 281 280 279 278 276 275 276 275 276 278 279 280 280 280 281 282 281 280 281 281 281 280 279 278 278 278 277
281 281 280 280 281 281 282 282 282 282 281 282 281 279 277 276 275 275 277 278 280 281 282 282 282 283 284 282 281 280 280 280 280 280 279 279 279 279
281 281 280 281 280 280 280 281 281 281 281 281 281 281 279 278 278 277 279 280 280 281 282 283 283 285 285 285 283 282 280 279 279 279 280 280 281 281
281 282 281 281 280 280 280 279 279 279 279 279 280 280 281 281 280 280 280 280 281 281 281 282 283 285 285 285 284 283 282 282 281 281 281 280 281 282
279 281 281 280 280 280 279 279 279 279 278 278 279 280 280 281 281 281 281 281 282 281 281 282 284 285 285 284 285 284 282 282 282 282 282 281 281 281
278 279 279 279 279 280 279 279 279 279 279 278 278 280 281 282 282 281 281 282 283 282 282 282 284 284 284 284 285 284 284 284 283 282 282 282 281 281
278 278 279 279 279 279 279 279 279 278 278 278 278 279 281 282 282 282 282 282 281 282 282 283 284 284 284 284 283 284 284 285 285 285 284 283 282 281
278 278 278 279 279 280 279 278 279 278 278 278 278 279 281 282 282 282 282 283 282 282 282 282 284 284 283 283 284 284 284 284 285 285 285 284 283 282
279 278 278 278 278 279 279 279 278 278 278 278 278 279 280 281 282 282 283 283 283 283 283 284 284 284 283 283 284 284 284 284 285 285 285 284 284 282
280 278 278 278 279 280 280 280 280 279 279 279 279 280 281 281 282 283 283 283 283 284 285 286 286 286 285 284 284 284 284 285 285 285 285 285 284 283
Height
5803 5803 5803 5802 5802 5802 5801 5802 5802 5802 5803 5803 5803 5803 5804 5805 5805 5805 5805 5805 5805 5805 5805 5805 5805 5805 5804 5804 5804 5803 5803 5803 5803 5803 5802 5802 5801 5800
5799 5798 5798 5797 5797 5797 5796 5796 5797 5797 5797 5798 5798 5798 5799 5799 5800 5800 5800 5800 5800 5800 5800 5800 5800 5799 5799 5798 5798 5798 5798 5797 5797 5797 5797 5797 5796 5796
5794 5793 5793 5792 5792 5791 5791 5791 5791 5791 5792 5792 5792 5793 5793 5794 5794 5794 5794 5794 5795 5795 5795 5794 5794 5794 5793 5792 5792 5792 5792 5791 5791 5791 5791 5791 5791 5791
5789 5788 5787 5787 5786 5786 5786 5786 5786 5786 5786 5787 5787 5788 5788 5788 5788 5788 5789 5789 5789 5789 5789 5789 5788 5788 5787 5786 5786 5786 5785 5785 5785 5785 5785 5785 5785 5786
5784 5783 5783 5782 5781 5781 5781 5781 5781 5781 5781 5781 5782 5782 5782 5782 5782 5782 5782 5783 5783 5783 5783 5783 5782 5782 5781 5780 5780 5779 5779 5778 5778 5778 5778 5779 5779 5779
5779 5778 5778 5777 5777 5776 5776 5776 5776 5775 5775 5776 5775 5776 5776 5776 5776 5776 5776 5777 5777 5777 5777 5776 5776 5775 5775 5774 5773 5773 5772 5772 5771 5771 5771 5771 5772 5772
5774 5773 5773 5772 5771 5770 5770 5770 5770 5770 5770 5770 5769 5769 5769 5769 5770 5770 5770 5770 5770 5770 5770 5770 5769 5769 5768 5768 5767 5766 5766 5765 5765 5764 5764 5764 5764 5764
5769 5768 5767 5766 5766 5765 5765 5764 5764 5764 5763 5763 5763 5763 5763 5763 5763 5763 5764 5764 5764 5764 5764 5763 5762 5762 5761 5760 5759 5759 5758 5758 5757 5757 5756 5756 5756 5755
5764 5763 5763 5762 5761 5760 5759 5758 5758 5757 5757 5757 5756 5756 5756 5756 5756 5757 5757 5757 5757 5757 5756 5756 5755 5754 5753 5752 5752 5751 5750 5749 5749 5748 5748 5747 5747 5746
5759 5758 5757 5756 5755 5754 5753 5752 5751 5751 5750 5750 5750 5749 5749 5749 5749 5750 5750 5750 5749 5749 5748 5748 5747 5746 5745 5744 5743 5742 5742 5741 5740 5739 5738 5738 5737 5736
5753 5752 5751 5751 5750 5748 5747 5747 5745 5744 5744 5743 5743 5743 5742 5742 5742 5742 5742 5742 5742 5741 5741 5741 5740 5739 5737 5736 5735 5733 5732 5731 5730 5729 5728 5728 5727 5726
5747 5746 5745 5744 5743 5742 5741 5740 5740 5738 5737 5736 5736 5735 5735 5734 5734 5734 5734 5734 5734 5734 5733 5732 5731 5730 5729 5728 5726 5724 5723 5721 5720 5719 5718 5717 5717 5716
5740 5739 5738 5737 5736 5735 5734 5734 5733 5731 5730 5729 5728 5727 5727 5727 5726 5726 5726 5725 5725 5725 5724 5723 5722 5720 5719 5718 5717 5715 5713 5712 5710 5709 5708 5707 5707 5706
5733 5732 5731 5730 5729 5728 5727 5726 5725 5723 5722 5721 5721 5720 5719 5719 5718 5717 5717 5716 5715 5715 5714 5713 5712 5711 5709 5708 5707 5705 5703 5702 5701 5700 5698 5697 5696 5695
5725 5724 5723 5722 5721 5720 5719 5718 5716 5715 5714 5713 5713 5712 5711 5710 5709 5709 5707 5706 5705 5705 5704 5703 5702 5700 5699 5698 5697 5695 5694 5692 5690 5689 5688 5687 5686 5685
5716 5715 5714 5713 5712 5711 5710 5709 5708 5706 5706 5705 5704 5703 5702 5701 5700 5700 5699 5697 5696 5695 5694 5692 5691 5690 5689 5687 5686 5685 5683 5682 5680 5679 5678 5676 5675 5674
5707 5706 5705 5704 5703 5702 5701 5700 5698 5697 5697 5696 5695 5694 5693 5692 5691 5690 5689 5688 5687 5685 5684 5682 5681 5679 5678 5676 5675 5673 5672 5671 5669 5668 5667 5666 5664 5662
5697 5696 5695 5694 5693 5692 5691 5690 5689 5688 5687 5686 5686 5685 5684 5683 5682 5680 5679 5678 5676 5675 5673 5672 5670 5668 5667 5665 5664 5662 5661 5659 5658 5656 5655 5654 5653 5650
5686 5686 5685 5684 5682 5682 5681 5680 5679 5678 5677 5676 5675 5675 5674 5673 5671 5670 5668 5667 5666 5664 5663 5661 5659 5657 5656 5655 5653 5650 5649 5647 5645 5644 5642 5641 5640 5638
5676 5675 5674 5673 5672 5671 5670 5669 5668 5667 5666 5665 5665 5664 5663 5662 5660 5659 5658 5656 5655 5653 5652 5650 5648 5646 5645 5643 5641 5639 5636 5635 5633 5631 5629 5627 5626 5624
5664 5664 5663 5662 5661 5660 5659 5658 5657 5656 5655 5654 5654 5653 5651 5650 5649 5647 5646 5644 5643 5641 5640 5638 5636 5634 5632 5630 5629 5627 5624 5621 5619 5617 5616 5614 5612 5610
5652 5652 5651 5650 5649 5648 5647 5646 5645 5644 5643 5642 5642 5641 5639 5638 5637 5635 5634 5632 5631 5629 5628 5626 5623 5621 5619 5617 5615 5613 5611 5608 5606 5603 5601 5599 5597 5596
5641 5640 5639 5639 5637 5636 5635 5634 5633 5632 5631 5630 5629 5628 5627 5626 5624 5623 5622 5620 5619 5617 5615 5613 5611 5608 5606 5604 5602 5599 5597 5595 5592 5590 5587 5584 5582 5580